Location: Newark
(25.5428°S, 54.5819°W)
Time: 14:25:15
(UTC+00:00)

Envisat - Pass Details

Date: 29 July 2019
Orbit: 764 x 766 km, 98.1° (Epoch: 22 August)

Event Time Altitude Azimuth Distance (km) Brightness Sun altitude
Exits shadow 23:31:58 - 193° (SSW) 2,722 5.9 -31.5°
Reaches altitude 10° 23:33:11 10° 200° (SSW) 2,325 5.6 -31.8°
Maximum altitude 23:37:10 23° 251° (WSW) 1,582 5.1 -32.7°
Drops below altitude 10° 23:41:08 10° 303° (WNW) 2,304 6.1 -33.6°
Sets 23:43:50 0° 317° (NW) 3,223 6.9 -34.2°
